ARABSAT-5A

Last updated on Sun Aug 31 2025 00:02:47 GMT+0000 (Coordinated Universal Time)

1 36745U 10032B 25242.08656042 .00000157 00000+0 00000+0 0 9998 2 36745 0.0504 37.3648 0004050 120.2582 242.5768 1.00268468 55724
UTC large
Height (km)
Speed (km/s)
/
Latitude / Longitude
Inclination (degrees)
Orbital Period (minutes)
Azimuth
Elevation
Range (km)
Doppler Factor

Next 0 passes for location: London (51.5072 / 0.1276)

Sorry there are no passes over London.